This demonstration page uses our WeatherBlox Daily Observations layout. Learn more.

Left ArrowRight Arrow

39.51506, -84.39828

Hourly Observations for February 17, 2019

Temp ( °F °C ) Dew Point ( °F °C ) Humidity (%) Winds ( mph kmh ) Pressure ( in mb ) Visibility ( mi km ) Precip ( " mm )
12:15 am 00:15 Clear 25 -3.9 19 -7 79 79 ENE 8 13 30.05 1017 10 16 0.00 0.00
12:35 am 00:35 Clear 24 -4.2 19 -7.2 80 80 ENE 7 11 30.05 1017 10 16 0.00 0.00
12:55 am 00:55 Clear 25 -4.1 20 -6.9 81 81 ENE 9 15 30.05 1017 10 16 0.00 0.00
1:15 am 01:15 Clear 25 -3.9 20 -6.8 81 81 ENE 8 13 30.05 1017 10 16 0.00 0.00
1:35 am 01:35 Clear 25 -3.8 20 -6.8 80 80 ENE 12 19 30.05 1017 10 16 0.00 0.00
1:55 am 01:55 Clear 25 -4 20 -6.7 82 82 ENE 9 15 30.04 1017 10 16 0.00 0.00
2:15 am 02:15 Clear 25 -4 20 -6.9 80 80 ENE 8 13 30.05 1017 10 16 0.00 0.00
2:35 am 02:35 Clear 25 -3.9 20 -6.7 81 81 ENE 9 15 30.03 1017 10 16 0.00 0.00
2:55 am 02:55 Clear 26 -3.6 20 -6.6 80 80 NE 10 17 30.02 1017 10 16 0.00 0.00
3:15 am 03:15 Clear 25 -3.7 20 -6.6 81 81 NE 10 17 30.02 1016 10 16 0.00 0.00
3:35 am 03:35 Clear 26 -3.4 20 -6.5 79 79 NE 9 15 30.00 1016 10 16 0.00 0.00
3:55 am 03:55 Clear 26 -3.4 20 -6.4 80 80 NE 10 17 29.98 1015 10 16 0.00 0.00
4:15 am 04:15 Clear 26 -3.4 20 -6.6 79 79 ENE 12 19 29.98 1015 10 16 0.00 0.00
4:35 am 04:35 Clear 26 -3.5 20 -6.7 79 79 ENE 8 13 29.97 1015 10 16 0.00 0.00
4:55 am 04:55 Partly Cloudy 26 -3.6 20 -6.8 79 79 ENE 8 13 29.95 1014 10 16 0.00 0.00
5:15 am 05:15 Partly Cloudy 25 -3.7 20 -6.7 80 80 ENE 12 19 29.96 1014 10 16 0.00 0.00
5:35 am 05:35 Partly Cloudy 26 -3.5 20 -6.6 79 79 ENE 13 20 29.94 1014 10 16 0.00 0.00
5:55 am 05:55 Cloudy 26 -3.1 20 -6.4 78 78 ENE 7 11 29.97 1015 10 16 0.00 0.00
6:15 am 06:15 Cloudy 27 -3 20 -6.6 76 76 ENE 7 11 29.97 1015 10 16 0.00 0.00
6:35 am 06:35 Cloudy 27 -3 20 -6.4 78 78 E 13 20 29.95 1014 10 16 0.00 0.00
6:55 am 06:55 Cloudy 27 -2.8 21 -6.2 78 78 ENE 10 17 29.95 1014 10 16 0.00 0.00
7:15 am 07:15 Cloudy 27 -2.8 21 -6.1 78 78 NE 8 13 29.95 1014 10 16 0.00 0.00
7:35 am 07:35 Cloudy 27 -2.7 21 -6.1 78 78 NE 12 19 29.95 1014 10 16 0.00 0.00
7:55 am 07:55 Cloudy 27 -2.7 21 -6.2 77 77 NE 12 19 29.94 1014 10 16 0.00 0.00
8:15 am 08:15 Cloudy 28 -2.5 21 -6.2 76 76 ENE 10 17 29.94 1014 10 16 0.00 0.00
8:35 am 08:35 Cloudy 28 -2.5 21 -6.2 76 76 ENE 10 17 29.94 1014 10 16 0.00 0.00
8:55 am 08:55 Cloudy 28 -2.2 21 -6.1 75 75 ENE 12 19 29.94 1014 10 16 0.00 0.00
9:15 am 09:15 Cloudy 29 -1.9 21 -6.1 73 73 E 9 15 29.95 1014 10 16 0.00 0.00
9:35 am 09:35 Cloudy 29 -1.7 21 -6 73 73 E 12 19 29.93 1014 10 16 0.00 0.00
9:55 am 09:55 Cloudy 29 -1.6 21 -5.9 73 73 E 13 20 29.92 1013 10 16 0.00 0.00
10:15 am 10:15 Cloudy 29 -1.5 21 -5.9 72 72 E 9 15 29.90 1012 10 16 0.00 0.00
10:35 am 10:35 Cloudy 30 -1.3 22 -5.8 72 72 E 10 17 29.89 1012 10 16 0.00 0.00
10:55 am 10:55 Cloudy 30 -1.2 22 -5.6 72 72 ENE 10 17 29.89 1012 10 16 0.00 0.00
11:15 am 11:15 Cloudy 30 -1 22 -5.5 72 72 E 8 13 29.88 1012 10 16 0.00 0.00
11:35 am 11:35 Cloudy 31 -0.6 22 -5.3 71 71 ENE 8 13 29.88 1012 10 16 0.00 0.00
11:55 am 11:55 Cloudy with Light Rain 31 -0.8 23 -5.1 73 73 E 6 9 29.89 1012 10 16 0.00 0.00
12:15 pm 12:15 Cloudy 31 -0.7 23 -5.1 72 72 ENE 6 9 29.88 1012 10 16 0.00 0.00
12:35 pm 12:35 Cloudy with Light Rain 31 -0.8 24 -4.6 76 76 ENE 3 6 29.88 1012 10 16 0.00 0.00
12:55 pm 12:55 Cloudy with Light Snow 31 -0.8 25 -4.1 79 79 NE 6 9 29.86 1011 7 11 0.00 0.00
1:15 pm 13:15 Cloudy 31 -0.8 26 -3.5 82 82 NE 6 9 29.85 1011 10 16 0.01 0.25
1:35 pm 13:35 Cloudy with Light Snow 31 -0.8 27 -2.9 86 86 ENE 6 9 29.83 1010 10 16 0.01 0.25
1:55 pm 13:55 Cloudy 30 -0.9 27 -2.9 86 86 NE 6 9 29.82 1010 10 16 0.01 0.25
2:15 pm 14:15 Cloudy with Mist and Fog 30 -0.9 27 -2.6 88 88 NE 6 9 29.81 1009 7 11 0.00 0.00
2:35 pm 14:35 Cloudy with Light Snow 30 -1.1 28 -2.1 93 93 NE 6 9 29.80 1009 2 3 0.00 0.00
2:55 pm 14:55 Cloudy with Light Wintry Mix 30 -1.2 28 -2 94 94 ENE 5 7 29.79 1009 2 3 0.00 0.00
3:15 pm 15:15 Cloudy with Light Snow 30 -1 29 -1.6 96 96 ENE 5 7 29.78 1008 1 2 0.00 0.00
3:35 pm 15:35 Cloudy with Mist and Fog 30 -1 29 -1.6 96 96 NE 3 6 29.78 1008 2 3 0.00 0.00
3:55 pm 15:55 Cloudy with Mist and Fog 30 -0.9 29 -1.7 94 94 ENE 3 6 29.79 1009 3 5 0.00 0.00
4:15 pm 16:15 Cloudy with Mist and Fog 31 -0.7 30 -1.3 96 96 Calm 29.80 1009 1 2 0.00 0.00
4:35 pm 16:35 Cloudy with Light Snow 31 -0.8 30 -1.3 96 96 Calm 29.81 1009 1 2 0.00 0.00
4:55 pm 16:55 Cloudy with Mist and Fog 31 -0.8 30 -1.3 96 96 Calm 29.80 1009 1 2 0.00 0.00
5:15 pm 17:15 Cloudy with Mist and Fog 31 -0.7 30 -1.2 96 96 Calm 29.79 1009 2 2 0.00 0.00
5:35 pm 17:35 Cloudy with Mist and Fog 31 -0.8 30 -1.3 96 96 Calm 29.79 1009 2 3 0.00 0.00
5:55 pm 17:55 Cloudy with Mist and Fog 31 -0.7 30 -1.2 96 96 Calm 29.79 1009 3 4 0.00 0.00
6:15 pm 18:15 Cloudy with Mist and Fog 31 -0.8 30 -1.2 97 97 Calm 29.81 1009 3 5 0.00 0.00
6:35 pm 18:35 Cloudy with Mist and Fog 31 -0.7 30 -1.2 96 96 Calm 29.81 1009 5 8 0.00 0.00
7:15 pm 19:15 Cloudy with Mist and Fog 31 -0.4 30 -1 96 96 W 7 11 29.85 1011 7 11 0.00 0.00
7:35 pm 19:35 Cloudy 31 -0.4 30 -1.2 94 94 WSW 5 7 29.85 1011 7 11 0.00 0.00
7:55 pm 19:55 Cloudy with Mist and Fog 31 -0.4 30 -1.2 94 94 W 7 11 29.86 1011 5 8 0.00 0.00
8:15 pm 20:15 Cloudy with Mist and Fog 31 -0.5 30 -1.2 95 95 WSW 6 9 29.85 1011 4 6 0.00 0.00
8:35 pm 20:35 Cloudy with Mist and Fog 31 -0.4 30 -1.1 95 95 WSW 5 7 29.86 1011 5 8 0.00 0.00
8:55 pm 20:55 Cloudy 31 -0.3 30 -1.1 94 94 WSW 8 13 29.87 1011 7 11 0.00 0.00
9:15 pm 21:15 Cloudy 32 -0.2 30 -1.2 93 93 WSW 10 17 29.88 1012 10 16 0.00 0.00
9:35 pm 21:35 Cloudy 32 -0.1 30 -1.1 93 93 WSW 7 11 29.89 1012 10 16 0.00 0.00
9:55 pm 21:55 Cloudy 32 -0.1 30 -1.2 92 92 WSW 8 13 29.89 1012 7 11 0.00 0.00
10:15 pm 22:15 Cloudy 32 0 30 -1.1 92 92 WSW 9 15 29.90 1013 7 11 0.00 0.00
10:35 pm 22:35 Cloudy 32 0 30 -1.3 91 91 W 9 15 29.90 1013 10 16 0.00 0.00
10:55 pm 22:55 Cloudy 32 0.1 30 -1.3 90 90 WSW 9 15 29.91 1013 10 16 0.00 0.00
11:15 pm 23:15 Cloudy 32 0.1 29 -1.4 90 90 W 8 13 29.91 1013 10 16 0.00 0.00
11:35 pm 23:35 Cloudy 32 0.1 30 -1.3 90 90 WSW 9 15 29.92 1013 10 16 0.00 0.00
11:55 pm 23:55 Cloudy 32 0.1 29 -1.4 90 90 W 9 15 29.92 1013 10 16 0.00 0.00

Powered by AerisWeather